Regional Weather Roundup
Issued by NWS

Home | Current Version | Previous Version | Text Only | Print | Product List | Glossary Off
Versions: 1 2 3 4 5 6 7 8 9 10 11 12 13 14 15 16 17 18 19 20 21 22 23 24 25 26 27 28 29 30 31 32 33 34 35 36 37 38 39 40 41 42 43 44 45 46 47 48 49 50

000
ASUS43 KFSD 291510
RWRSD

WEATHER ROUNDUP FOR SOUTH DAKOTA
NATIONAL WEATHER SERVICE SIOUX FALLS SD
1000 AM CDT SUN MAR 29 2015

NOTE: "FAIR" INDICATES FEW OR NO CLOUDS BELOW 12,000 FEET WITH NO
SIGNIFICANT WEATHER AND/OR OBSTRUCTIONS TO VISIBILITY.


SDZ001>005-009-010-012>017-291600-
NORTHWEST AND NORTH CENTRAL SOUTH DAKOTA

CITY           SKY/WX    TMP DP  RH WIND       PRES   REMARKS
BUFFALO          N/A     42  32  67 W17       30.09F
FAITH            N/A     44  30  57 NW21      30.15R
MOBRIDGE       SUNNY     45  34  65 NW28G37   30.01R
$$

SDZ012>016-024>037-041>051-057-063-072>074-291600-
SOUTHWEST AND SOUTH CENTRAL SOUTH DAKOTA

CITY           SKY/WX    TMP DP  RH WIND       PRES   REMARKS
RAPID CTY ARPT SUNNY     47  33  58 N23G35    30.19R
PIERRE         MOSUNNY   46  31  55 NW31G41   30.08R
CUSTER         SUNNY     43  16  33 CALM      30.19R
ELLSWORTH AFB  SUNNY     46  33  58 NW29G35   30.17R
PHILIP         SUNNY     47  26  44 NW30G38   30.16R
PINE RIDGE     SUNNY     48  30  49 N17G26    30.21R
SPEARFISH      PTSUNNY   45  32  61 NW18G25   30.21F
WINNER         CLOUDY    48  31  51 NW39G51   30.06R
$$

SDZ004>011-016>023-039-040-291600-
NORTHEAST SOUTH DAKOTA

CITY           SKY/WX    TMP DP  RH WIND       PRES   REMARKS
ABERDEEN       MOSUNNY   45  37  73 NW31G40   29.95R
WATERTOWN      CLOUDY    40  37  89 NW28G37   29.82R
SISSETON         N/A     43  38  82 N29G44    29.79R
$$

SDZ017-020-022-023-036>040-048>070-291600-
SOUTHEAST SOUTH DAKOTA

CITY           SKY/WX    TMP DP  RH WIND       PRES   REMARKS
SIOUX FALLS    CLOUDY    47  39  74 NW35G46   29.82R
HURON          CLOUDY    44  36  73 NW31G47   29.93R
CHAMBERLAIN    CLOUDY    45  33  64 NW32G41   30.04R
MITCHELL       CLOUDY    46  37  71 NW33G45   29.93R
YANKTON        CLOUDY   N/A N/A N/A NW40G48   29.89R
$$

ABBREVIATIONS USED IN REMARKS
   TC - TEMPERATURE IN CELSIUS
  WCI - WIND CHILL INDEX
   HX - HEAT INDEX
  VSB - VISIBILITY



USA.gov is the U.S. government's official web portal to all federal, state and local government web resources and services.